This demonstration page uses our WeatherBlox Daily Observations layout. Learn more.

Left ArrowRight Arrow

39.51506, -84.39828

Hourly Observations for February 4, 2020

Temp ( °F °C ) Dew Point ( °F °C ) Humidity (%) Winds ( mph kmh ) Pressure ( in mb ) Visibility ( mi km ) Precip ( " mm )
12:15 am 00:15 Cloudy 61 16.2 41 4.8 47 47 SSW 13 20 29.76 1008 10 16.0934 0 0
12:35 am 00:35 Cloudy 61 16.2 40 4.6 46 46 SSW 12 19 29.77 1008 10 16.0934 0 0
12:55 am 00:55 Cloudy 61 16.1 40 4.5 46 46 SSW 10 17 29.77 1008 10 16.0934 0 0
1:15 am 01:15 Cloudy 61 15.9 40 4.7 48 48 SSW 12 19 29.76 1008 10 16.0934 0 0
1:35 am 01:35 Cloudy 61 15.9 40 4.6 47 47 SW 14 22 29.77 1008 10 16.0934 0 0
1:55 am 01:55 Cloudy 60 15.8 40 4.7 48 48 SSW 9 15 29.76 1008 10 16.0934 0 0
2:15 am 02:15 Cloudy 60 15.7 41 4.9 49 49 SSW 12 19 29.77 1008 10 16.0934 0 0
2:35 am 02:35 Cloudy 60 15.4 41 5 50 50 SSW 9 15 29.78 1008 10 16.0934 0 0
2:55 am 02:55 Cloudy 60 15.4 42 5.3 51 51 SSW 8 13 29.79 1009 10 16.0934 0 0
3:15 am 03:15 Cloudy 59 15.2 42 5.3 52 52 SSW 9 15 29.79 1009 10 16.0934 0 0
3:35 am 03:35 Cloudy 59 15.1 42 5.5 53 53 SSW 7 11 29.79 1009 10 16.0934 0 0
3:55 am 03:55 Cloudy 59 15 42 5.6 54 54 SSW 9 15 29.79 1009 10 16.0934 0 0
4:15 am 04:15 Cloudy 59 15.1 42 5.8 54 54 SSW 9 15 29.79 1009 10 16.0934 0 0
4:35 am 04:35 Cloudy 59 15.1 44 6.4 56 56 SSW 9 15 29.79 1009 10 16.0934 0 0
4:55 am 04:55 Cloudy 59 15.1 44 6.9 58 58 SSW 9 15 29.79 1009 10 16.0934 0 0
5:15 am 05:15 Cloudy 59 15.2 46 7.6 61 61 SSW 8 13 29.8 1009 10 16.0934 0 0
5:35 am 05:35 Cloudy 59 15.1 46 7.9 62 62 SSW 8 13 29.8 1009 10 16.0934 0 0
5:55 am 05:55 Cloudy with Light Rain 59 15.1 47 8.5 65 65 SSW 9 15 29.81 1009 10 16.0934 0 0
6:15 am 06:15 Cloudy 58 14.5 49 9.7 73 73 SSW 12 19 29.81 1009 10 16.0934 0 0
6:35 am 06:35 Cloudy with Light Rain 58 14.2 51 10.7 80 80 SSW 14 22 29.83 1010 10 16.0934 0 0
6:55 am 06:55 Cloudy with Light Rain 56 13.3 53 11.5 89 89 SSW 8 13 29.83 1010 7 11.26538 0 0
7:15 am 07:15 Cloudy with Rain 55 13 53 11.6 91 91 SSW 8 13 29.83 1010 7 11.26538 0 0
7:35 am 07:35 Cloudy with Light Rain 55 12.7 53 11.8 94 94 SSW 7 11 29.84 1011 10 16.0934 0 0
7:55 am 07:55 Cloudy 55 12.7 53 11.9 95 95 SSW 8 13 29.84 1011 10 16.0934 0 0
8:15 am 08:15 Cloudy 55 12.9 54 12.1 95 95 SSW 9 15 29.84 1011 10 16.0934 0 0
8:35 am 08:35 Cloudy 55 13 54 12.2 95 95 SSW 7 11 29.85 1011 10 16.0934 0.01 0.254
8:55 am 08:55 Cloudy 56 13.1 54 12.3 95 95 SSW 8 13 29.85 1011 10 16.0934 0.01 0.254
9:15 am 09:15 Cloudy 56 13.1 54 12.3 95 95 SSW 9 15 29.85 1011 10 16.0934 0 0
9:35 am 09:35 Cloudy 56 13.2 54 12.4 95 95 SSW 10 17 29.85 1011 10 16.0934 0 0
9:55 am 09:55 Cloudy 56 13.1 54 12.3 95 95 SSW 8 13 29.85 1011 10 16.0934 0 0
10:15 am 10:15 Cloudy 56 13.3 55 12.5 95 95 SSW 8 13 29.85 1011 10 16.0934 0 0
10:35 am 10:35 Cloudy 56 13.4 54 12.4 94 94 S 9 15 29.83 1010 10 16.0934 0 0
10:55 am 10:55 Cloudy 57 13.8 55 12.7 93 93 SSW 9 15 29.83 1010 10 16.0934 0 0
11:15 am 11:15 Cloudy 57 13.9 55 12.6 92 92 SSW 9 15 29.83 1010 10 16.0934 0 0
11:35 am 11:35 Cloudy 57 13.8 54 12.4 91 91 SSW 12 19 29.83 1010 10 16.0934 0 0
11:55 am 11:55 Cloudy 57 13.9 54 12.4 91 91 SSW 8 13 29.82 1010 10 16.0934 0 0
12:15 pm 12:15 Cloudy 57 14 55 12.5 91 91 SW 13 20 29.81 1009 10 16.0934 0 0
12:35 pm 12:35 Cloudy 57 13.9 54 12.4 91 91 SSW 12 19 29.81 1009 10 16.0934 0 0
12:55 pm 12:55 Cloudy with Rain 56 13.6 55 12.5 93 93 SSW 12 19 29.81 1009 7 11.26538 0 0
1:15 pm 13:15 Cloudy with Light Rain 56 13.3 55 12.6 96 96 SSW 12 19 29.81 1010 5 8.0467 0 0
1:35 pm 13:35 Cloudy with Light Rain 56 13.3 55 12.8 97 97 SSW 12 19 29.81 1010 5 8.0467 0 0
1:55 pm 13:55 Cloudy with Light Rain 56 13.3 55 12.8 97 97 SSW 9 15 29.79 1009 7 11.26538 0 0
2:15 pm 14:15 Cloudy with Light Rain 56 13.5 55 13 97 97 SW 8 13 29.79 1009 7 11.26538 0 0
2:35 pm 14:35 Cloudy with Light Rain 56 13.6 56 13.2 97 97 SW 6 9 29.79 1009 7 11.26538 0 0
2:55 pm 14:55 Cloudy with Light Rain 47 8.5 46 7.6 94 94 N 15 24 29.81 1010 5 8.0467 0 0
3:15 pm 15:15 Cloudy with Light Rain 44 6.8 42 5.8 93 93 N 12 19 29.83 1010 7 11.26538 0 0
3:35 pm 15:35 Cloudy with Rain 43 5.9 41 5 94 94 NNE 16 26 29.85 1011 3 4.82802 0 0
3:55 pm 15:55 Cloudy with Light Rain 41 4.9 39 4.1 95 95 N 16 26 29.86 1011 3.5 5.63269 0.01 0.254
4:15 pm 16:15 Cloudy with Light Rain 40 4.2 38 3.4 95 95 N 15 24 29.87 1012 4 6.43736 0 0
4:35 pm 16:35 Cloudy with Light Rain 39 3.8 37 2.9 94 94 N 14 22 29.88 1012 5 8.0467 0 0
4:55 pm 16:55 Cloudy with Rain 38 3.6 37 2.7 94 94 NNE 17 28 29.89 1012 5 8.0467 0 0
5:15 pm 17:15 Cloudy with Light Rain 38 3.4 37 2.5 94 94 N 15 24 29.9 1012 7 11.26538 0 0
5:35 pm 17:35 Cloudy with Light Rain 38 3.2 36 2.4 95 95 N 14 22 29.91 1013 7 11.26538 0 0
5:55 pm 17:55 Cloudy with Light Rain 38 3.1 36 2.2 94 94 N 15 24 29.92 1013 7 11.26538 0 0
6:15 pm 18:15 Cloudy with Rain 37 2.9 36 2.1 95 95 NNE 17 28 29.93 1013 3.5 5.63269 0 0
6:35 pm 18:35 Cloudy with Light Rain 37 2.8 36 2.1 95 95 NNE 15 24 29.93 1013 4 6.43736 0 0
6:55 pm 18:55 Cloudy with Light Rain 37 2.8 35 1.9 94 94 N 13 20 29.95 1014 10 16.0934 0 0
7:15 pm 19:15 Cloudy with Light Rain 37 2.5 35 1.4 93 93 N 14 22 29.96 1015 10 16.0934 0 0
7:35 pm 19:35 Cloudy with Light Rain 36 2.3 34 1 91 91 N 18 30 29.97 1015 10 16.0934 0 0
7:55 pm 19:55 Cloudy with Light Rain 36 2.2 34 1 92 92 NNE 14 22 29.98 1015 10 16.0934 0 0
8:15 pm 20:15 Cloudy with Light Rain 36 2.1 33 0.8 91 91 NNE 14 22 29.97 1015 10 16.0934 0 0
8:35 pm 20:35 Cloudy 36 2.1 33 0.7 91 91 NNE 14 22 29.99 1016 10 16.0934 0 0
8:55 pm 20:55 Cloudy 36 2 33 0.5 90 90 NNE 16 26 30 1016 10 16.0934 0 0
9:15 pm 21:15 Cloudy with Light Rain 35 1.9 33 0.5 91 91 NNE 10 17 29.99 1016 10 16.0934 0 0
9:35 pm 21:35 Cloudy with Drizzle 35 1.8 33 0.3 90 90 NNE 14 22 30 1016 10 16.0934 0 0
9:55 pm 21:55 Cloudy 35 1.6 33 0.3 91 91 NNE 15 24 30.02 1017 10 16.0934 0 0
10:15 pm 22:15 Cloudy with Drizzle 35 1.6 32 0.2 91 91 NNE 14 22 30.02 1017 10 16.0934 0 0
10:35 pm 22:35 Cloudy 35 1.5 32 0.2 91 91 NNE 15 24 30.02 1017 10 16.0934 0 0
10:55 pm 22:55 Cloudy 34 1.3 32 0 91 91 NNE 22 35 30.03 1017 10 16.0934 0 0
11:15 pm 23:15 Cloudy 33 0.8 29 -1.4 85 85 NE 20 31 30.02 1017 10 16.0934 0 0
11:35 pm 23:35 Cloudy 33 0.7 30 -1.3 87 87 NNE 20 31 30.02 1017 10 16.0934 0 0
11:55 pm 23:55 Cloudy 33 0.7 30 -1.1 88 88 NNE 15 24 30.03 1017 10 16.0934 0 0

Powered by AerisWeather